Sierra Vista, AZ

1:39 PM MST on April 25, 2017 (GMT -0700)
Sierra Vista Municipal-Libby Army Air Field

Weather History for KFHU - December, 2012

Change the Weather History Date:

Monday, December 24, 2012

  Actual Average Record
Temperature  
Mean Temperature 49 °F -  
Max Temperature 57 °F 57 °F 72 °F (1989)
Min Temperature 41 °F 35 °F 19 °F (1990)
Degree Days  
Heating Degree Days 16    
Moisture  
Dew Point 28 °F    
Average Humidity 47    
Maximum Humidity 65    
Minimum Humidity 29    
Precipitation  
Precipitation 0.00 in - - ()
Sea Level Pressure  
Sea Level Pressure 29.94 in    
Wind  
Wind Speed 9 mph (WSW)    
Max Wind Speed 25 mph    
Max Gust Speed 31 mph    
Visibility 10 miles    
Events      
Averages and records for this station are not official NWS values.
T = Trace of Precipitation, MM = Missing Value Source: NWS Daily Summary

Daily Weather History Graph

Daily Weather History Graph

Search for Another Location

Airport or City:

Trip Planner

Search our weather history database for the weather conditions in past years. The results will help you decide how hot, cold, wet, or windy it might be!

Date:

Astronomy

Dec. 24, 2012 Rise Set
Actual Time 7:18 AM MST 5:24 PM MST
Civil Twilight 6:51 AM MST 5:51 PM MST
Nautical Twilight 6:21 AM MST 6:21 PM MST
Astronomical Twilight 5:51 AM MST 6:51 PM MST
Moon 2:49 PM MST (12/24) 4:04 AM MST (12/24)
Length of Visible Light 10h 59m
Length of Day
10h 05m
Waxing Gibbous, 89% of the Moon is Illuminated
Dec 24
Waxing Gibbous
Dec 28
Full
Jan 4
Last Quarter
Jan 11
New
Jan 18
First Quarter

Hourly Weather History & Observations

Time (MST) Temp. Windchill Dew Point Humidity Pressure Visibility Wind Dir Wind Speed Gust Speed Precip Events Conditions
12:56 AM 42.1 °F 37.1 °F 28.0 °F 58% 30.01 in 10.0 mi SSE 8.1 mph - N/A   Clear
1:56 AM 41.0 °F 37.1 °F 27.0 °F 57% 30.01 in 10.0 mi SSE 5.8 mph - N/A   Clear
2:56 AM 42.1 °F 37.1 °F 27.0 °F 55% 29.99 in 10.0 mi SSE 8.1 mph - N/A   Clear
3:56 AM 42.1 °F - 28.0 °F 58% 29.96 in 10.0 mi Calm Calm - N/A   Clear
4:56 AM 41.0 °F 38.0 °F 28.9 °F 62% 29.96 in 10.0 mi SSW 4.6 mph - N/A   Clear
5:56 AM 43.0 °F 41.3 °F 30.0 °F 60% 29.98 in 10.0 mi South 3.5 mph - N/A   Clear
6:56 AM 44.1 °F 41.5 °F 28.0 °F 53% 29.99 in 10.0 mi South 4.6 mph - N/A   Clear
7:56 AM 46.0 °F - 25.0 °F 44% 29.99 in 10.0 mi Calm Calm - N/A   Clear
8:56 AM 45.0 °F 42.6 °F 27.0 °F 49% 30.00 in 10.0 mi West 4.6 mph - N/A   Clear
9:56 AM 51.1 °F - 24.1 °F 35% 30.01 in 10.0 mi WNW 13.8 mph - N/A   Clear
10:56 AM 51.1 °F - 24.1 °F 35% 30.01 in 10.0 mi NW 11.5 mph - N/A   Clear
11:56 AM 55.9 °F - 24.1 °F 29% 29.97 in 10.0 mi West 12.7 mph - N/A   Clear
12:56 PM 57.0 °F - 25.0 °F 29% 29.93 in 10.0 mi WNW 12.7 mph - N/A   Clear
1:56 PM 57.9 °F - 27.0 °F 31% 29.89 in 10.0 mi NW 13.8 mph - N/A   Clear
2:56 PM 57.9 °F - 26.1 °F 30% 29.89 in 10.0 mi West 17.3 mph 24.2 mph N/A   Clear
3:56 PM 57.0 °F - 27.0 °F 32% 29.88 in 10.0 mi West 17.3 mph - N/A   Clear
4:56 PM 55.0 °F - 28.0 °F 35% 29.86 in 10.0 mi WSW 20.7 mph - N/A   Clear
5:56 PM 52.0 °F - 28.0 °F 40% 29.84 in 10.0 mi WSW 25.3 mph 29.9 mph N/A   Clear
6:56 PM 48.9 °F - 30.9 °F 50% 29.86 in 10.0 mi West 23.0 mph 31.1 mph N/A   Clear
7:56 PM 48.0 °F - 33.1 °F 56% 29.89 in 10.0 mi West 18.4 mph 26.5 mph N/A   Clear
8:56 PM 45.0 °F 37.9 °F 33.1 °F 63% 29.91 in 10.0 mi West 16.1 mph - N/A   Clear
9:56 PM 46.9 °F - 32.0 °F 56% 29.92 in 10.0 mi West 10.4 mph 19.6 mph N/A   Mostly Cloudy
10:56 PM 46.9 °F - 32.0 °F 56% 29.96 in 10.0 mi West 10.4 mph 19.6 mph N/A   Overcast
11:56 PM 44.1 °F 40.1 °F 33.1 °F 65% 29.95 in 10.0 mi WNW 6.9 mph - N/A   Scattered Clouds